Vorticity
11 12 11 9 5 5 6 6 7 6 7 4 3 3 3 2 3 3 3 3 3 4 4 5 7 8 9 7 8 8 7 6 5 6 12 13 9 7 3 3 2 2 3 3 5 6 7
3 2 4 6 9 12 12 7 5 5 5 5 5 5 5 5 4 4 4 4 4 4 4 4 4 6 8 9 6 7 6 5 6 5 7 15 11 10 6 3 4 1 3 3 4 4 4
13 8 4 3 2 3 3 6 9 11 11 8 7 6 6 6 6 6 6 5 6 6 4 5 4 5 4 8 7 5 6 7 7 5 5 7 15 9 9 4 5 4 4 5 2 3 3
13 12 9 12 10 9 8 6 4 3 4 5 6 7 8 8 8 8 8 10 10 10 12 14 13 11 10 7 6 9 6 5 7 5 3 3 5 15 9 9 5 5 4 5 2 4 3
5 3 2 7 9 10 15 12 14 9 6 4 4 4 3 3 4 4 4 4 5 6 5 4 4 9 9 12 11 10 7 8 4 6 7 3 2 3 11 11 8 6 7 6 6 2 2
-2 -1 -1 1 2 3 0 5 5 9 10 10 8 8 6 5 6 6 6 6 6 6 6 4 4 8 7 7 9 11 16 12 7 7 3 7 5 1 5 5 11 9 6 4 6 6 4
4 1 0 1 2 2 2 3 2 2 5 5 7 6 12 6 5 0 5 7 11 7 5 5 9 8 7 6 4 6 7 12 18 9 7 3 2 6 5 1 3 8 10 9 5 5 4
6 7 3 3 5 5 5 3 4 1 2 3 2 2 2 1 5 5 4 5 5 7 2 10 9 9 11 8 9 8 5 3 7 14 17 11 9 5 6 5 5 1 9 8 5 11 9
7 10 7 10 9 9 7 9 5 5 5 -0 -2 0 3 2 3 1 4 2 3 6 9 -7 2 7 7 13 12 11 17 15 11 7 10 12 20 15 10 12 15 13 11 9 7 8 9
7 8 6 8 13 14 9 9 11 9 13 10 7 2 7 6 2 6 8 7 6 10 12 0 9 13 2 3 5 5 4 -0 -1 2 10 9 12 18 14 9 12 9 8 9 4 5 13
8 9 9 13 14 11 10 8 7 7 9 9 7 11 12 10 15 8 12 13 11 10 4 4 4 7 8 10 8 10 6 8 10 4 -0 7 8 9 7 15 13 13 13 12 9 8 8
7 5 7 10 11 6 9 8 5 6 13 8 7 8 16 13 10 16 6 5 7 9 11 9 14 3 3 14 13 12 4 5 4 12 11 7 4 7 15 12 11 7 12 17 16 13 11
4 8 1 10 13 7 11 5 6 4 8 19 22 14 11 10 7 7 8 8 7 5 9 8 8 8 9 8 9 7 8 8 8 9 7 11 6 5 10 7 1 2 10 10 11 8 9
5 4 6 17 11 15 14 14 14 16 10 16 10 9 9 9 10 10 10 9 8 8 7 7 6 8 6 6 4 3 5 7 8 6 5 5 10 9 3 8 7 10 8 4 7 10 11
4 9 17 21 15 16 11 10 8 13 11 7 5 6 8 12 12 10 7 6 9 11 8 5 4 4 7 6 8 7 12 11 8 6 6 7 6 5 11 4 2 11 9 13 2 3 3
15 17 12 12 13 12 12 11 13 14 15 12 12 11 8 9 10 8 7 13 10 9 6 5 6 8 8 8 5 6 8 11 10 8 9 10 3 9 6 6 7 4 7 8 8 6 5
11 7 9 9 9 13 12 16 14 13 8 3 9 9 12 10 8 5 6 5 6 4 3 5 7 6 9 8 8 10 6 12 13 9 6 9 9 13 9 9 10 7 4 5 11 7 4
10 9 8 8 13 15 14 14 12 8 6 3 3 10 12 13 12 8 9 6 5 5 4 6 8 11 11 15 14 14 13 9 9 10 9 6 7 5 11 16 6 -0 3 8 6 6 8
13 13 13 14 15 11 6 5 4 5 9 10 9 5 8 9 9 7 7 7 5 8 9 14 10 15 15 13 10 12 13 16 15 18 13 14 19 13 10 14 13 8 7 12 9 8 2
12 14 12 9 8 8 8 6 7 8 10 8 10 9 7 7 10 9 5 7 11 11 10 14 13 16 15 12 12 8 15 12 11 18 19 17 11 16 13 6 18 18 14 10 3 9 6
9 7 4 4 4 5 1 5 10 6 5 8 7 7 5 4 10 9 11 13 15 16 9 15 12 19 15 12 14 15 14 14 14 17 9 10 18 12 14 16 12 15 20 12 1 16 -3
4 3 4 7 9 8 8 8 10 8 9 12 12 13 7 11 12 13 10 15 17 18 13 18 17 18 15 16 15 14 12 18 10 18 10 9 9 13 9 16 12 18 29 37 31 22 16
7 9 10 8 7 8 7 9 7 8 6 10 9 9 6 7 11 14 19 15 16 17 12 17 18 14 15 16 8 11 14 10 15 18 18 28 22 3 10 6 15 30 -17 -23 -6 8 16
10 9 7 6 5 5 5 6 10 8 8 6 14 13 14 12 15 22 24 15 17 15 14 15 15 13 15 14 11 12 12 14 14 13 13 16 26 19 44 18 6 25 35 25 1 -3 1
3 3 6 5 6 5 6 7 8 13 13 12 13 22 13 12 14 22 13 18 22 20 16 16 16 7 11 8 14 14 9 13 16 13 19 14 16 13 9 31 15 -5 41 21 10 14 18
6 5 4 5 6 7 10 13 15 16 18 17 23 19 11 -1 25 14 16 25 18 19 18 8 11 15 13 11 14 6 11 18 20 20 8 19 2 5 14 13 7 15 37 26 14 12 7
4 4 3 3 4 10 13 14 18 18 19 15 20 15 13 10 18 15 21 17 22 6 11 24 23 19 16 15 10 9 10 14 8 9 18 13 5 13 11 17 17 14 31 11 24 25 19
1 1 9 11 9 13 16 20 24 21 20 11 17 15 16 15 15 20 23 15 13 -3 12 8 8 16 20 9 7 8 9 12 11 2 16 13 20 21 26 11 10 6 22 24 27 36 27
13 13 13 13 26 33 29 23 21 18 17 11 15 17 17 10 20 20 20 21 -5 18 16 14 -6 14 7 9 1 6 6 7 15 18 10 5 -0 9 7 12 12 10 4 5 3 1 -1
Height
5839 5838 5837 5837 5836 5836 5835 5834 5833 5832 5831 5830 5829 5828 5827 5826 5824 5823 5821 5820 5819 5818 5817 5815 5814 5812 5812 5810 5809 5807 5806 5806 5804 5802 5800 5800 5800 5799 5800 5801 5801 5800 5802 5801 5801 5800 5800
5837 5837 5836 5836 5835 5834 5834 5834 5833 5831 5830 5828 5826 5825 5824 5822 5821 5819 5818 5817 5815 5813 5812 5810 5809 5808 5807 5806 5804 5802 5801 5800 5799 5798 5797 5795 5795 5795 5795 5796 5797 5797 5796 5797 5797 5797 5797
5836 5835 5834 5833 5832 5832 5831 5830 5828 5827 5827 5826 5824 5823 5821 5819 5817 5815 5814 5812 5810 5809 5807 5805 5803 5802 5801 5800 5798 5796 5796 5796 5794 5793 5792 5791 5790 5789 5790 5790 5791 5791 5791 5791 5793 5792 5792
5836 5835 5834 5832 5831 5830 5828 5827 5825 5824 5822 5821 5819 5818 5816 5815 5813 5811 5810 5808 5807 5805 5803 5801 5799 5797 5797 5794 5793 5791 5789 5789 5789 5788 5787 5786 5784 5784 5784 5785 5784 5784 5785 5786 5787 5786 5786
5834 5833 5832 5830 5829 5828 5826 5825 5822 5821 5819 5817 5815 5814 5812 5810 5807 5805 5804 5803 5801 5800 5798 5796 5795 5792 5792 5790 5788 5786 5784 5783 5782 5782 5781 5781 5779 5779 5779 5778 5777 5778 5778 5778 5777 5778 5778
5831 5830 5829 5828 5826 5824 5823 5821 5819 5817 5815 5813 5811 5809 5806 5803 5801 5800 5798 5796 5794 5793 5792 5790 5788 5788 5786 5785 5782 5780 5778 5777 5776 5775 5774 5773 5771 5772 5774 5771 5770 5768 5766 5768 5768 5771 5769
5829 5827 5825 5823 5822 5820 5818 5817 5815 5813 5811 5809 5807 5804 5801 5798 5796 5794 5792 5790 5789 5788 5786 5784 5782 5782 5779 5779 5776 5775 5772 5770 5769 5768 5766 5764 5763 5767 5764 5761 5762 5762 5760 5757 5760 5759 5756
5824 5823 5821 5819 5817 5814 5813 5810 5808 5805 5804 5802 5800 5797 5795 5793 5790 5788 5786 5783 5781 5779 5780 5777 5776 5774 5773 5772 5770 5768 5765 5763 5762 5760 5757 5753 5756 5758 5754 5753 5751 5751 5751 5752 5751 5746 5744
5819 5817 5815 5813 5810 5807 5805 5802 5800 5799 5797 5793 5791 5789 5786 5783 5781 5780 5777 5776 5772 5769 5767 5773 5771 5769 5766 5765 5762 5760 5758 5755 5753 5752 5749 5745 5750 5745 5745 5744 5742 5741 5740 5742 5739 5736 5731
5814 5812 5809 5806 5804 5801 5798 5795 5793 5790 5787 5784 5784 5781 5777 5774 5775 5771 5770 5767 5764 5760 5757 5762 5760 5760 5758 5756 5755 5753 5750 5748 5747 5744 5741 5739 5741 5738 5735 5734 5734 5728 5734 5728 5728 5727 5721
5808 5805 5802 5799 5796 5793 5790 5787 5784 5781 5778 5776 5774 5771 5769 5766 5765 5762 5761 5758 5754 5750 5748 5750 5747 5748 5749 5748 5746 5743 5740 5739 5738 5736 5734 5733 5730 5729 5727 5727 5723 5721 5721 5719 5715 5714 5710
5798 5795 5792 5790 5787 5784 5780 5777 5773 5770 5767 5765 5763 5762 5758 5757 5755 5751 5749 5747 5745 5742 5739 5740 5739 5736 5736 5736 5736 5735 5732 5728 5726 5724 5723 5725 5719 5719 5718 5716 5716 5710 5711 5707 5704 5701 5689
5787 5783 5780 5777 5774 5771 5768 5764 5761 5758 5755 5753 5751 5749 5747 5745 5743 5740 5738 5735 5732 5730 5733 5729 5728 5725 5724 5723 5722 5722 5720 5720 5717 5712 5712 5711 5712 5708 5708 5706 5706 5702 5700 5696 5692 5688 5684
5776 5771 5768 5765 5762 5758 5754 5751 5748 5746 5744 5741 5738 5736 5735 5734 5731 5729 5727 5725 5721 5723 5719 5715 5714 5713 5711 5712 5708 5707 5706 5705 5704 5700 5698 5697 5697 5698 5699 5699 5693 5690 5690 5687 5682 5680 5675
5763 5759 5755 5752 5749 5746 5742 5738 5735 5733 5731 5729 5727 5725 5723 5723 5719 5717 5716 5711 5713 5710 5708 5705 5702 5698 5699 5696 5695 5693 5692 5690 5687 5684 5684 5681 5682 5683 5684 5684 5684 5679 5678 5684 5671 5671 5664
5750 5746 5743 5740 5737 5734 5731 5728 5725 5722 5719 5717 5715 5713 5713 5711 5708 5705 5702 5703 5700 5696 5693 5690 5688 5687 5683 5682 5678 5675 5675 5674 5671 5670 5667 5667 5665 5668 5668 5668 5669 5668 5668 5665 5663 5658 5655
5737 5733 5730 5729 5726 5722 5719 5716 5713 5712 5709 5707 5704 5703 5700 5698 5695 5692 5690 5689 5685 5683 5679 5676 5674 5671 5669 5666 5664 5661 5658 5656 5654 5652 5648 5647 5645 5654 5653 5652 5654 5654 5652 5649 5649 5646 5643
5725 5722 5718 5715 5712 5709 5706 5703 5699 5697 5695 5692 5691 5688 5686 5684 5683 5678 5677 5672 5670 5665 5660 5657 5656 5652 5649 5647 5646 5643 5640 5637 5634 5633 5632 5629 5624 5629 5636 5636 5634 5635 5637 5636 5631 5637 5633
5712 5709 5705 5701 5698 5696 5692 5689 5686 5683 5681 5679 5676 5673 5671 5668 5664 5661 5658 5655 5651 5648 5644 5641 5636 5633 5629 5627 5624 5624 5622 5621 5618 5616 5612 5611 5608 5608 5615 5619 5618 5615 5621 5621 5621 5619 5617
5699 5695 5690 5687 5683 5680 5677 5672 5668 5666 5664 5661 5659 5657 5655 5651 5647 5644 5640 5638 5633 5629 5626 5621 5619 5614 5611 5609 5606 5603 5604 5601 5599 5599 5596 5593 5593 5593 5594 5597 5599 5596 5597 5599 5600 5598 5604
5683 5678 5674 5671 5669 5664 5660 5656 5653 5650 5648 5645 5641 5640 5636 5634 5630 5626 5621 5619 5616 5611 5608 5601 5600 5595 5592 5590 5589 5588 5585 5582 5584 5582 5581 5577 5576 5576 5578 5581 5580 5581 5581 5583 5580 5582 5576
5667 5663 5660 5656 5652 5648 5644 5639 5636 5634 5631 5628 5624 5622 5619 5616 5611 5607 5602 5602 5598 5593 5588 5586 5581 5577 5573 5572 5570 5568 5567 5569 5568 5571 5565 5561 5558 5560 5558 5567 5564 5559 5564 5566 5565 5568 5565
5651 5646 5642 5638 5634 5630 5627 5624 5620 5616 5613 5609 5604 5601 5598 5601 5595 5589 5585 5582 5580 5574 5571 5567 5564 5561 5559 5558 5555 5555 5555 5556 5552 5552 5551 5548 5545 5543 5539 5551 5543 5540 5552 5550 5547 5548 5548
5634 5630 5627 5623 5619 5614 5610 5605 5601 5596 5592 5590 5584 5579 5578 5581 5574 5569 5566 5563 5561 5559 5553 5553 5551 5547 5548 5544 5543 5543 5543 5543 5542 5544 5538 5534 5533 5529 5524 5532 5525 5532 5529 5530 5531 5533 5530
5615 5611 5606 5602 5598 5594 5589 5585 5581 5577 5572 5569 5565 5559 5556 5560 5558 5555 5549 5546 5545 5542 5541 5540 5540 5537 5535 5533 5531 5530 5534 5532 5534 5531 5529 5525 5524 5520 5516 5516 5516 5520 5512 5513 5514 5516 5516
5595 5590 5586 5581 5576 5571 5567 5564 5561 5557 5551 5548 5547 5541 5537 5540 5543 5538 5535 5531 5530 5529 5529 5529 5528 5526 5525 5523 5522 5520 5519 5520 5520 5518 5517 5516 5515 5511 5510 5506 5503 5502 5501 5499 5498 5502 5502
5570 5566 5562 5559 5553 5549 5546 5544 5541 5539 5535 5531 5531 5526 5522 5521 5526 5521 5520 5519 5517 5518 5518 5518 5518 5518 5516 5515 5514 5514 5513 5512 5510 5509 5507 5505 5503 5501 5500 5494 5495 5493 5492 5489 5489 5492 5489
5546 5542 5537 5534 5531 5528 5525 5523 5521 5520 5517 5513 5515 5511 5509 5507 5510 5509 5508 5507 5508 5509 5510 5510 5510 5509 5508 5508 5507 5506 5504 5503 5501 5501 5497 5496 5494 5492 5490 5487 5487 5484 5483 5482 5479 5478 5479
5521 5516 5512 5509 5507 5505 5503 5502 5502 5502 5501 5498 5500 5498 5496 5494 5498 5497 5496 5497 5500 5501 5501 5501 5501 5500 5499 5499 5499 5496 5496 5494 5492 5490 5490 5489 5487 5485 5484 5481 5478 5476 5475 5475 5474 5473 5472